Nellis AFB, NV

1:29 PM PST on December 15, 2019 (GMT -0800)
Nellis Air Force Base

Weather History for KLSV - November, 2019

Change the Weather History Date:

Tuesday, November 19, 2019

  Actual Average Record
Temperature  
Mean Temperature 60 °F -  
Max Temperature 76 °F 63 °F 76 °F (2007)
Min Temperature 45 °F 40 °F 28 °F (2000)
Degree Days  
Heating Degree Days 4    
Growing Degree Days 10 (Base 50)    
Moisture  
Dew Point 37 °F    
Average Humidity 45    
Maximum Humidity 100    
Minimum Humidity 17    
Precipitation  
Precipitation 0.07 in - - ()
Sea Level Pressure  
Sea Level Pressure 29.61 in    
Wind  
Wind Speed 7 mph (East)    
Max Wind Speed 28 mph    
Max Gust Speed 33 mph    
Visibility 10 miles    
Events Rain    
Averages and records for this station are not official NWS values.
T = Trace of Precipitation, MM = Missing Value Source: NWS Daily Summary

Daily Weather History Graph

Daily Weather History Graph

Search for Another Location

Airport or City:

Astronomy

Nov. 19, 2019 Rise Set
Actual Time 6:21 AM PST 4:29 PM PST
Civil Twilight 5:53 AM PST 4:57 PM PST
Nautical Twilight 5:22 AM PST 5:28 PM PST
Astronomical Twilight 4:51 AM PST 5:59 PM PST
Moon 11:28 PM PST (11/19) 12:35 PM PST (11/19)
Length of Visible Light 11h 03m
Length of Day
10h 08m
Waning Gibbous, 50% of the Moon is Illuminated
Nov 19
Waning Gibbous
Nov 19
Last Quarter
Nov 26
New
Dec 3
First Quarter
Dec 11
Full

Hourly Weather History & Observations

Time (PST) Temp. Dew Point Humidity Pressure Visibility Wind Dir Wind Speed Gust Speed Precip Events Conditions
12:58 AM 49.6 °F 21.0 °F 32% 29.82 in 10.0 mi Calm Calm - N/A   Clear
1:58 AM 50.7 °F 23.4 °F 34% 29.81 in 10.0 mi Calm Calm - N/A   Clear
2:58 AM 49.6 °F 23.2 °F 35% 29.80 in 10.0 mi WNW 3.5 mph - N/A   Clear
3:58 AM 49.5 °F 23.5 °F 36% 29.78 in 10.0 mi NNW 3.5 mph - N/A   Clear
4:58 AM 46.8 °F 20.5 °F 35% 29.78 in 10.0 mi Calm Calm - N/A   Clear
5:58 AM 46.0 °F 21.2 °F 37% 29.79 in 10.0 mi Calm Calm - N/A   Clear
6:58 AM 45.3 °F 19.9 °F 36% 29.80 in 10.0 mi Calm Calm - N/A   Clear
7:58 AM 52.0 °F 23.7 °F 33% 29.79 in 10.0 mi NW 3.5 mph - N/A   Scattered Clouds
8:58 AM 55.6 °F 27.7 °F 34% 29.77 in 10.0 mi Calm Calm - N/A   Partly Cloudy
9:58 AM 61.5 °F 27.1 °F 27% 29.75 in 10.0 mi Calm Calm - N/A   Mostly Cloudy
10:58 AM 70.3 °F 26.1 °F 19% 29.68 in 10.0 mi Calm Calm - N/A   Mostly Cloudy
11:58 AM 71.8 °F 26.1 °F 18% 29.63 in 10.0 mi NE 12.7 mph - N/A   Mostly Cloudy
12:58 PM 74.5 °F 26.8 °F 17% 29.60 in 10.0 mi NE 10.4 mph - N/A   Partly Cloudy
1:58 PM 75.6 °F 27.7 °F 17% 29.55 in 10.0 mi ENE 9.2 mph - N/A   Mostly Cloudy
2:58 PM 76.8 °F 30.0 °F 18% 29.53 in 10.0 mi ENE 12.7 mph - N/A   Mostly Cloudy
3:58 PM 75.2 °F 32.5 °F 21% 29.51 in 10.0 mi ESE 19.6 mph - N/A   Mostly Cloudy
4:40 PM 73.4 °F 46.4 °F 38% 29.50 in 10.0 mi ESE 17.3 mph - N/A Rain Light Rain
4:46 PM 71.6 °F 44.6 °F 38% 29.50 in 10.0 mi SE 13.8 mph - N/A   Mostly Cloudy
4:58 PM 72.7 °F 40.3 °F 31% 29.50 in 10.0 mi ESE 17.3 mph 23.0 mph 0.00 in   Mostly Cloudy
5:58 PM 73.4 °F 40.1 °F 30% 29.48 in 10.0 mi SE 26.5 mph 29.9 mph N/A   Overcast
6:58 PM 72.5 °F 44.1 °F 36% 29.47 in 10.0 mi ESE 26.5 mph 29.9 mph N/A   Overcast
7:58 PM 66.7 °F 50.0 °F 55% 29.50 in 10.0 mi ESE 27.6 mph 33.4 mph N/A   Overcast
8:58 PM 63.9 °F 52.3 °F 66% 29.50 in 10.0 mi East 16.1 mph 26.5 mph N/A   Mostly Cloudy
9:15 PM 64.4 °F 51.8 °F 64% 29.50 in 10.0 mi ESE 11.5 mph 17.3 mph N/A   Light Drizzle
9:25 PM 62.6 °F 53.6 °F 72% 29.50 in 10.0 mi ESE 6.9 mph 18.4 mph N/A   Partly Cloudy
9:43 PM 60.8 °F 51.8 °F 72% 29.51 in 10.0 mi North 9.2 mph - N/A Rain Light Rain
9:58 PM 60.8 °F 53.6 °F 77% 29.51 in 10.0 mi North 3.5 mph - 0.00 in Rain Light Rain
10:23 PM 59.0 °F 55.4 °F 88% 29.52 in 8.0 mi East 11.5 mph - N/A Rain Light Rain Showers
10:58 PM 58.8 °F 58.8 °F 100% 29.48 in 6.0 mi East 15.0 mph - 0.07 in Rain Rain
11:08 PM 59.0 °F 59.0 °F 100% 29.48 in 10.0 mi East 16.1 mph - N/A Rain Light Rain
11:58 PM 57.7 °F 54.9 °F 90% 29.45 in 8.0 mi East 20.7 mph - N/A Rain Light Rain